Miscellaneous Local Product
Issued by NWS Hastings, NE

Home | Current Version | Previous Version | Graphics & Text | Print | Product List | Glossary On
Versions: 1 2 3 4 5 6 7 8 9 10 11 12 13 14 15 16 17 18 19 20 21 22 23 24 25 26 27 28 29 30 31 32 33 34 35 36 37 38 39 40 41 42 43 44 45 46 47 48 49 50
000
AXUS43 KGID 162002
MISGRI

GID CWA HOURLY WEATHER ROUNDUP
NATIONAL WEATHER SERVICE HASTINGS NE
300 PM CDT THU APR 16 2015

NOTE: "FAIR" INDICATES FEW OR NO CLOUDS BELOW 12,000 FEET WITH NO
SIGNIFICANT WEATHER AND/OR OBSTRUCTIONS TO VISIBILITY.

...SOUTH CENTRAL NEBRASKA...

CITY           SKY/WX    TMP DP  RH WIND       PRES   REMARKS
GRAND ISLAND   PTSUNNY   64  53  67 E9        30.05F
HASTINGS       PTSUNNY   65  55  70 NE9       30.02F
KEARNEY        CLOUDY    57  54  88 NE10      30.04F
ORD            PTSUNNY   63  53  70 NE9       30.04F
YORK           PTSUNNY   63  55  77 CALM      30.06F
AURORA         CLOUDY    63  56  76 E7        30.05F
LEXINGTON      CLOUDY    57  56  94 E13       30.04F FOG
HOLDREGE       CLOUDY    60  55  85 NE14      30.02F
HEBRON         PTSUNNY   69  54  58 E8G16     30.01F

...NEBRASKA PANHANDLE...

CITY           SKY/WX    TMP DP  RH WIND       PRES   REMARKS
CHADRON        CLOUDY    54  40  59 NE16      30.15S
ALLIANCE       CLOUDY    55  41  59 N23G29    30.10F
SCOTTSBLUFF    CLOUDY    49  41  74 N16       30.12F
SIDNEY         CLOUDY    47  40  76 NE16      30.11R

...WESTERN AND NORTH CENTRAL NEBRASKA...

CITY           SKY/WX    TMP DP  RH WIND       PRES   REMARKS
VALENTINE      CLOUDY    64  42  44 N9        30.09F
AINSWORTH      PTSUNNY   65  45  49 NE6       30.09F
ONEILL         LGT RAIN  56  53  88 NW5       30.10S
BROKEN BOW     CLOUDY    59  52  77 NE17      30.04F
IMPERIAL       LGT RAIN  52  48  86 NE12      30.07R FOG
NORTH PLATTE   CLOUDY    57  47  69 NE16      30.06R
MCCOOK         CLOUDY    55  52  89 NE13      30.03F FOG

...EASTERN NEBRASKA...

CITY           SKY/WX    TMP DP  RH WIND       PRES   REMARKS
NORFOLK        NOT AVBL
SO SIOUX CITY  CLOUDY    70  48  45 VRB5      30.06F
TEKAMAH        CLOUDY    70  50  49 VRB3      30.04F
COLUMBUS       CLOUDY    66  50  55 SE10      30.07F
ALBION         PTSUNNY   69  47  44 NE7       30.06F
OMAHA EPPLEY   PTSUNNY   70  51  51 SE5       30.05F
OFFUTT AFB     CLOUDY    70  53  54 W3        30.04F
MILLARD        CLOUDY    69  52  54 SE5       30.05F
LINCOLN        CLOUDY    70  53  54 N5        30.05F
NEBRASKA CITY  PTSUNNY   70  47  44 SE3       30.04F
BEATRICE       PTSUNNY   70  55  58 CALM      30.03F
FALLS CITY     MOSUNNY   73  54  51 S6        30.02F

...NORTHERN KANSAS...

CITY           SKY/WX    TMP DP  RH WIND       PRES   REMARKS
GOODLAND       HVY RAIN  50  50 100 N13       30.03F FOG
HILL CITY      PTSUNNY   73  47  39 E12G18    29.95F
NORTON         CLOUDY    68  46  45 NE10G18   29.98F
PHILLIPSBURG   CLOUDY    75  48  38 E12G17    29.97F
SMITH CENTER   MOSUNNY   73  52  46 E16G22    29.98F
BELOIT         MOSUNNY   75  48  38 SE12      29.97F
HAYS           PTSUNNY   70  48  46 SE20      29.98S
RUSSELL        PTSUNNY   67  52  58 SE14      29.96S
CONCORDIA      PTSUNNY   72  55  55 E10       29.99F
SALINA         CLOUDY    72  52  49 SE10      29.97F
TOPEKA         MOSUNNY   74  56  53 S8        30.02F



USA.gov is the U.S. government's official web portal to all federal, state and local government web resources and services.